Time,TemperatureF,DewpointF,PressureIn,WindDirection,WindDirectionDegrees,WindSpeedMPH,WindSpeedGustMPH,Humidity,HourlyPrecipIn,Conditions,Clouds,dailyrainin,SoftwareType,DateUTC
2013-09-06 00:04:00,57.4,32.0,30.37,South,175,4.0,5.4,38,0.00,,---,0.00,VWS V14.01,2013-09-06 06:04:00,
2013-09-06 00:10:00,57.2,31.8,30.37,South,185,6.7,6.7,38,0.00,,---,0.00,VWS V14.01,2013-09-06 06:10:00,
2013-09-06 00:16:00,57.0,32.3,30.37,WSW,240,3.1,4.9,39,0.00,,---,0.00,VWS V14.01,2013-09-06 06:16:00,
2013-09-06 00:21:00,56.8,32.2,30.37,SSW,212,4.0,6.3,39,0.00,,---,0.00,VWS V14.01,2013-09-06 06:21:00,
2013-09-06 00:27:00,56.7,32.6,30.37,SSE,155,2.7,5.8,40,0.00,,---,0.00,VWS V14.01,2013-09-06 06:27:00,
2013-09-06 00:32:00,56.5,32.5,30.37,SSW,199,5.8,5.8,40,0.00,,---,0.00,VWS V14.01,2013-09-06 06:32:00,
2013-09-06 00:38:00,56.3,32.3,30.37,SSW,204,3.6,6.3,40,0.00,,---,0.00,VWS V14.01,2013-09-06 06:38:00,
2013-09-06 00:43:00,56.3,32.3,30.37,SSW,202,3.6,8.1,40,0.00,,---,0.00,VWS V14.01,2013-09-06 06:43:00,
2013-09-06 00:49:00,56.1,32.2,30.37,SW,218,3.6,5.8,40,0.00,,---,0.00,VWS V14.01,2013-09-06 06:49:00,
2013-09-06 00:55:00,55.9,32.6,30.37,SSW,211,5.8,6.3,41,0.00,,---,0.00,VWS V14.01,2013-09-06 06:55:00,
2013-09-06 01:00:00,55.8,32.4,30.37,SW,233,4.0,6.3,41,0.00,,---,0.00,VWS V14.01,2013-09-06 07:00:00,
2013-09-06 01:06:00,55.4,32.7,30.37,SSW,205,5.4,8.1,42,0.00,,---,0.00,VWS V14.01,2013-09-06 07:06:00,
2013-09-06 01:11:00,55.0,33.0,30.37,SSW,205,6.3,6.7,43,0.00,,---,0.00,VWS V14.01,2013-09-06 07:11:00,
2013-09-06 01:17:00,54.9,33.4,30.37,South,188,6.3,6.3,44,0.00,,---,0.00,VWS V14.01,2013-09-06 07:17:00,
2013-09-06 01:22:00,54.7,33.2,30.37,SSW,200,5.8,7.6,44,0.00,,---,0.00,VWS V14.01,2013-09-06 07:22:00,
2013-09-06 01:28:00,54.7,33.2,30.40,South,184,3.6,5.4,44,0.00,,---,0.00,VWS V14.01,2013-09-06 07:28:00,
2013-09-06 01:33:00,54.7,32.6,30.40,SSW,204,5.4,7.6,43,0.00,,---,0.00,VWS V14.01,2013-09-06 07:33:00,
2013-09-06 01:38:00,54.7,33.2,30.40,SW,214,6.3,6.3,44,0.00,,---,0.00,VWS V14.01,2013-09-06 07:38:00,
2013-09-06 01:43:00,54.5,33.0,30.40,South,183,4.9,7.6,44,0.00,,---,0.00,VWS V14.01,2013-09-06 07:43:00,
2013-09-06 01:48:00,54.3,32.9,30.40,SSE,163,5.4,8.1,44,0.00,,---,0.00,VWS V14.01,2013-09-06 07:48:00,
2013-09-06 01:53:00,54.1,33.3,30.40,SSW,210,4.0,8.1,45,0.00,,---,0.00,VWS V14.01,2013-09-06 07:53:00,
2013-09-06 01:58:00,54.1,33.3,30.40,SW,217,4.9,6.3,45,0.00,,---,0.00,VWS V14.01,2013-09-06 07:58:00,
2013-09-06 02:03:00,53.8,33.5,30.40,SW,225,7.6,7.6,46,0.00,,---,0.00,VWS V14.01,2013-09-06 08:03:00,
2013-09-06 02:08:00,53.6,33.3,30.40,SW,220,4.0,7.6,46,0.00,,---,0.00,VWS V14.01,2013-09-06 08:08:00,
2013-09-06 02:13:00,53.2,33.5,30.40,SSW,210,4.9,6.3,47,0.00,,---,0.00,VWS V14.01,2013-09-06 08:13:00,
2013-09-06 02:18:00,53.1,33.4,30.40,SSW,209,2.7,6.3,47,0.00,,---,0.00,VWS V14.01,2013-09-06 08:18:00,
2013-09-06 02:23:00,53.1,33.4,30.37,SW,222,4.9,5.8,47,0.00,,---,0.00,VWS V14.01,2013-09-06 08:23:00,
2013-09-06 02:28:00,53.1,33.4,30.37,SW,214,4.0,6.7,47,0.00,,---,0.00,VWS V14.01,2013-09-06 08:28:00,
2013-09-06 02:33:00,52.9,33.2,30.37,South,172,5.4,5.4,47,0.00,,---,0.00,VWS V14.01,2013-09-06 08:33:00,
2013-09-06 02:38:00,52.7,33.0,30.37,South,185,3.1,5.4,47,0.00,,---,0.00,VWS V14.01,2013-09-06 08:38:00,
2013-09-06 02:43:00,52.5,33.4,30.37,South,189,4.0,4.0,48,0.00,,---,0.00,VWS V14.01,2013-09-06 08:43:00,
2013-09-06 02:49:00,52.5,32.9,30.37,SSW,209,3.6,6.3,47,0.00,,---,0.00,VWS V14.01,2013-09-06 08:49:00,
2013-09-06 02:54:00,52.3,33.2,30.37,SSW,212,4.9,8.3,48,0.00,,---,0.00,VWS V14.01,2013-09-06 08:54:00,
2013-09-06 02:59:00,52.2,33.1,30.37,WSW,238,3.1,6.3,48,0.00,,---,0.00,VWS V14.01,2013-09-06 08:59:00,
2013-09-06 03:04:00,52.0,33.4,30.37,SSW,198,5.4,7.6,49,0.00,,---,0.00,VWS V14.01,2013-09-06 09:04:00,
2013-09-06 03:10:00,51.8,33.3,30.37,SSW,200,3.6,7.6,49,0.00,,---,0.00,VWS V14.01,2013-09-06 09:10:00,
2013-09-06 03:15:00,51.6,33.6,30.37,SSW,202,6.3,7.6,50,0.00,,---,0.00,VWS V14.01,2013-09-06 09:15:00,
2013-09-06 03:20:00,51.4,33.4,30.37,SSW,198,5.8,7.6,50,0.00,,---,0.00,VWS V14.01,2013-09-06 09:20:00,
2013-09-06 03:25:00,51.3,33.3,30.37,SSW,202,4.9,6.3,50,0.00,,---,0.00,VWS V14.01,2013-09-06 09:25:00,
2013-09-06 03:30:00,51.3,33.3,30.37,SSW,212,4.9,6.3,50,0.00,,---,0.00,VWS V14.01,2013-09-06 09:30:00,
2013-09-06 03:35:00,51.3,33.3,30.37,South,185,3.6,5.8,50,0.00,,---,0.00,VWS V14.01,2013-09-06 09:35:00,
2013-09-06 03:40:00,51.1,33.1,30.37,SW,214,4.9,7.6,50,0.00,,---,0.00,VWS V14.01,2013-09-06 09:40:00,
2013-09-06 03:45:00,51.1,33.1,30.37,SW,232,3.1,5.8,50,0.00,,---,0.00,VWS V14.01,2013-09-06 09:45:00,
2013-09-06 03:50:00,51.1,32.6,30.37,South,177,4.0,5.4,49,0.00,,---,0.00,VWS V14.01,2013-09-06 09:50:00,
2013-09-06 03:55:00,51.1,32.6,30.37,SW,222,8.1,8.1,49,0.00,,---,0.00,VWS V14.01,2013-09-06 09:55:00,
2013-09-06 04:00:00,50.9,32.9,30.37,SSW,208,6.3,6.3,50,0.00,,---,0.00,VWS V14.01,2013-09-06 10:00:00,
2013-09-06 04:05:00,50.7,32.8,30.37,South,185,4.9,8.3,50,0.00,,---,0.00,VWS V14.01,2013-09-06 10:05:00,
2013-09-06 04:10:00,50.7,32.8,30.37,South,190,4.0,7.6,50,0.00,,---,0.00,VWS V14.01,2013-09-06 10:10:00,
2013-09-06 04:15:00,50.7,32.3,30.37,SSW,198,5.8,5.8,49,0.00,,---,0.00,VWS V14.01,2013-09-06 10:15:00,
2013-09-06 04:21:00,50.5,32.1,30.37,SW,223,3.6,5.4,49,0.00,,---,0.00,VWS V14.01,2013-09-06 10:21:00,
2013-09-06 04:26:00,50.5,32.1,30.37,South,186,5.4,6.3,49,0.00,,---,0.00,VWS V14.01,2013-09-06 10:26:00,
2013-09-06 04:31:00,50.4,31.9,30.37,South,185,5.4,5.4,49,0.00,,---,0.00,VWS V14.01,2013-09-06 10:31:00,
2013-09-06 04:36:00,50.2,31.8,30.37,SSW,204,5.8,6.3,49,0.00,,---,0.00,VWS V14.01,2013-09-06 10:36:00,
2013-09-06 04:41:00,50.2,31.3,30.37,SW,221,4.9,6.3,48,0.00,,---,0.00,VWS V14.01,2013-09-06 10:41:00,
2013-09-06 04:46:00,50.2,31.8,30.37,SSW,193,4.0,6.3,49,0.00,,---,0.00,VWS V14.01,2013-09-06 10:46:00,
2013-09-06 04:51:00,50.0,31.6,30.37,SSW,207,4.5,5.8,49,0.00,,---,0.00,VWS V14.01,2013-09-06 10:51:00,
2013-09-06 04:56:00,49.8,31.4,30.37,South,171,3.6,5.8,49,0.00,,---,0.00,VWS V14.01,2013-09-06 10:56:00,
2013-09-06 05:01:00,49.6,31.3,30.37,SSW,209,5.4,6.3,49,0.00,,---,0.00,VWS V14.01,2013-09-06 11:01:00,
2013-09-06 05:06:00,49.6,31.3,30.37,South,187,5.4,5.8,49,0.00,,---,0.00,VWS V14.01,2013-09-06 11:06:00,
2013-09-06 05:11:00,49.5,31.1,30.37,SSW,207,2.7,5.8,49,0.00,,---,0.00,VWS V14.01,2013-09-06 11:11:00,
2013-09-06 05:16:00,49.5,31.1,30.37,SW,219,3.6,7.2,49,0.00,,---,0.00,VWS V14.01,2013-09-06 11:16:00,
2013-09-06 05:21:00,49.3,31.0,30.37,SSW,208,4.0,6.3,49,0.00,,---,0.00,VWS V14.01,2013-09-06 11:21:00,
2013-09-06 05:26:00,49.1,31.3,30.37,SW,217,5.8,6.7,50,0.00,,---,0.00,VWS V14.01,2013-09-06 11:26:00,
2013-09-06 05:31:00,48.9,30.6,30.37,South,178,8.1,8.1,49,0.00,,---,0.00,VWS V14.01,2013-09-06 11:31:00,
2013-09-06 05:36:00,48.7,30.5,30.37,SSW,194,7.6,8.3,49,0.00,,---,0.00,VWS V14.01,2013-09-06 11:36:00,
2013-09-06 05:41:00,48.7,30.5,30.37,South,182,4.9,6.3,49,0.00,,---,0.00,VWS V14.01,2013-09-06 11:41:00,
2013-09-06 05:46:00,48.7,30.5,30.37,SSW,201,8.1,8.1,49,0.00,,---,0.00,VWS V14.01,2013-09-06 11:46:00,
2013-09-06 05:51:00,48.6,30.3,30.37,South,189,7.6,8.1,49,0.00,,---,0.00,VWS V14.01,2013-09-06 11:51:00,
2013-09-06 05:57:00,48.6,30.3,30.37,SSW,197,3.1,6.7,49,0.00,,---,0.00,VWS V14.01,2013-09-06 11:57:00,
2013-09-06 06:02:00,48.4,30.1,30.37,SSW,212,5.8,7.6,49,0.00,,---,0.00,VWS V14.01,2013-09-06 12:02:00,
2013-09-06 06:07:00,48.2,30.0,30.37,SSW,202,8.3,8.3,49,0.00,,---,0.00,VWS V14.01,2013-09-06 12:07:00,
2013-09-06 06:12:00,48.0,30.3,30.37,SSW,194,6.3,8.3,50,0.00,,---,0.00,VWS V14.01,2013-09-06 12:12:00,
2013-09-06 06:18:00,48.0,29.8,30.37,SW,218,5.4,6.3,49,0.00,,---,0.00,VWS V14.01,2013-09-06 12:18:00,
2013-09-06 06:23:00,48.0,29.8,30.37,SSW,207,5.4,6.3,49,0.00,,---,0.00,VWS V14.01,2013-09-06 12:23:00,
2013-09-06 06:28:00,47.8,29.6,30.37,South,190,4.0,8.7,49,0.00,,---,0.00,VWS V14.01,2013-09-06 12:28:00,
2013-09-06 06:33:00,47.7,29.5,30.37,SSE,160,4.0,4.9,49,0.00,,---,0.00,VWS V14.01,2013-09-06 12:33:00,
2013-09-06 06:38:00,47.7,30.0,30.40,SW,221,3.1,6.7,50,0.00,,---,0.00,VWS V14.01,2013-09-06 12:38:00,
2013-09-06 06:43:00,47.5,29.8,30.40,South,169,4.0,6.3,50,0.00,,---,0.00,VWS V14.01,2013-09-06 12:43:00,
2013-09-06 06:48:00,47.3,29.6,30.40,SSW,194,4.0,5.8,50,0.00,,---,0.00,VWS V14.01,2013-09-06 12:48:00,
2013-09-06 06:53:00,47.3,29.6,30.37,SSW,203,5.4,7.6,50,0.00,,---,0.00,VWS V14.01,2013-09-06 12:53:00,
2013-09-06 06:58:00,47.3,29.6,30.37,SSW,197,3.6,5.4,50,0.00,,---,0.00,VWS V14.01,2013-09-06 12:58:00,
2013-09-06 07:03:00,47.3,29.6,30.37,SW,225,4.9,5.8,50,0.00,,---,0.00,VWS V14.01,2013-09-06 13:03:00,
2013-09-06 07:08:00,47.3,29.6,30.40,SSW,207,5.4,6.3,50,0.00,,---,0.00,VWS V14.01,2013-09-06 13:08:00,
2013-09-06 07:13:00,47.3,29.6,30.40,SSW,208,5.4,6.3,50,0.00,,---,0.00,VWS V14.01,2013-09-06 13:13:00,
2013-09-06 07:18:00,47.3,29.6,30.40,SSW,203,8.1,8.1,50,0.00,,---,0.00,VWS V14.01,2013-09-06 13:18:00,
2013-09-06 07:23:00,47.3,29.1,30.40,South,186,5.4,5.8,49,0.00,,---,0.00,VWS V14.01,2013-09-06 13:23:00,
2013-09-06 07:28:00,47.3,29.1,30.40,SW,214,4.0,6.3,49,0.00,,---,0.00,VWS V14.01,2013-09-06 13:28:00,
2013-09-06 07:33:00,47.1,29.0,30.40,SSW,208,6.3,8.1,49,0.00,,---,0.00,VWS V14.01,2013-09-06 13:33:00,
2013-09-06 07:38:00,47.1,29.0,30.40,SSW,199,4.0,5.4,49,0.00,,---,0.00,VWS V14.01,2013-09-06 13:38:00,
2013-09-06 07:43:00,47.1,29.5,30.40,SSW,198,5.4,5.8,50,0.00,,---,0.00,VWS V14.01,2013-09-06 13:43:00,
2013-09-06 07:48:00,47.1,29.5,30.40,SSW,206,4.0,6.3,50,0.00,,---,0.00,VWS V14.01,2013-09-06 13:48:00,
2013-09-06 07:53:00,47.1,29.5,30.40,SSW,204,6.3,6.3,50,0.00,,---,0.00,VWS V14.01,2013-09-06 13:53:00,
2013-09-06 07:58:00,47.1,29.5,30.40,SSW,201,5.4,6.3,50,0.00,,---,0.00,VWS V14.01,2013-09-06 13:58:00,
2013-09-06 08:03:00,47.1,29.5,30.40,SSW,202,5.8,7.6,50,0.00,,---,0.00,VWS V14.01,2013-09-06 14:03:00,
2013-09-06 08:08:00,47.1,29.5,30.40,SSW,206,4.0,6.3,50,0.00,,---,0.00,VWS V14.01,2013-09-06 14:08:00,
2013-09-06 08:13:00,47.3,29.1,30.40,SSW,213,6.3,6.3,49,0.00,,---,0.00,VWS V14.01,2013-09-06 14:13:00,
2013-09-06 08:18:00,47.5,28.8,30.40,SW,216,5.4,6.7,48,0.00,,---,0.00,VWS V14.01,2013-09-06 14:18:00,
2013-09-06 08:23:00,47.8,29.1,30.40,SSW,202,5.4,8.1,48,0.00,,---,0.00,VWS V14.01,2013-09-06 14:23:00,
2013-09-06 08:28:00,48.0,29.3,30.40,SSW,209,4.9,6.3,48,0.00,,---,0.00,VWS V14.01,2013-09-06 14:28:00,
2013-09-06 08:33:00,48.2,29.5,30.40,SW,225,6.3,6.3,48,0.00,,---,0.00,VWS V14.01,2013-09-06 14:33:00,
2013-09-06 08:38:00,48.6,29.8,30.40,SSW,210,6.3,6.3,48,0.00,,---,0.00,VWS V14.01,2013-09-06 14:38:00,
2013-09-06 08:43:00,48.7,29.9,30.40,SSW,210,4.0,5.8,48,0.00,,---,0.00,VWS V14.01,2013-09-06 14:43:00,
2013-09-06 08:48:00,49.1,30.3,30.40,SSW,193,5.4,5.8,48,0.00,,---,0.00,VWS V14.01,2013-09-06 14:48:00,
2013-09-06 08:53:00,49.6,30.2,30.40,SW,218,3.6,6.3,47,0.00,,---,0.00,VWS V14.01,2013-09-06 14:53:00,
2013-09-06 08:58:00,50.2,29.7,30.40,South,187,3.6,6.3,45,0.00,,---,0.00,VWS V14.01,2013-09-06 14:58:00,
2013-09-06 09:03:00,50.5,29.5,30.40,South,169,3.1,4.9,44,0.00,,---,0.00,VWS V14.01,2013-09-06 15:03:00,
2013-09-06 09:08:00,50.7,29.1,30.40,South,186,2.7,4.0,43,0.00,,---,0.00,VWS V14.01,2013-09-06 15:08:00,
2013-09-06 09:13:00,50.7,29.1,30.40,South,187,2.7,4.9,43,0.00,,---,0.00,VWS V14.01,2013-09-06 15:13:00,
2013-09-06 09:18:00,50.7,29.1,30.40,South,173,3.6,4.9,43,0.00,,---,0.00,VWS V14.01,2013-09-06 15:18:00,
2013-09-06 09:23:00,50.7,28.5,30.40,South,180,0.0,3.6,42,0.00,,---,0.00,VWS V14.01,2013-09-06 15:23:00,
2013-09-06 09:28:00,50.9,28.6,30.40,South,189,0.0,0.0,42,0.00,,---,0.00,VWS V14.01,2013-09-06 15:28:00,
2013-09-06 09:33:00,51.3,28.4,30.40,South,189,0.0,0.0,41,0.00,,---,0.00,VWS V14.01,2013-09-06 15:33:00,
2013-09-06 09:38:00,51.6,28.7,30.40,South,189,0.0,0.0,41,0.00,,---,0.00,VWS V14.01,2013-09-06 15:38:00,
2013-09-06 09:43:00,51.6,28.7,30.40,SE,134,0.0,0.0,41,0.00,,---,0.00,VWS V14.01,2013-09-06 15:43:00,
2013-09-06 09:48:00,51.6,28.7,30.40,SE,134,0.0,0.0,41,0.00,,---,0.00,VWS V14.01,2013-09-06 15:48:00,
2013-09-06 09:53:00,51.6,28.1,30.40,SE,134,0.0,0.0,40,0.00,,---,0.00,VWS V14.01,2013-09-06 15:53:00,
2013-09-06 09:58:00,51.8,28.3,30.40,ESE,120,0.0,0.0,40,0.00,,---,0.00,VWS V14.01,2013-09-06 15:58:00,
2013-09-06 10:03:00,52.0,27.8,30.40,ESE,109,0.0,0.0,39,0.00,,---,0.00,VWS V14.01,2013-09-06 16:03:00,
2013-09-06 10:08:00,52.2,28.0,30.37,ESE,108,0.0,0.0,39,0.00,,---,0.00,VWS V14.01,2013-09-06 16:08:00,
2013-09-06 10:13:00,52.5,28.3,30.37,ESE,107,0.0,0.0,39,0.00,,---,0.00,VWS V14.01,2013-09-06 16:13:00,
2013-09-06 10:18:00,52.9,28.6,30.37,East,93,0.0,0.0,39,0.00,,---,0.00,VWS V14.01,2013-09-06 16:18:00,
2013-09-06 10:23:00,53.2,28.9,30.37,East,86,0.0,0.0,39,0.00,,---,0.00,VWS V14.01,2013-09-06 16:23:00,
2013-09-06 10:28:00,53.6,28.6,30.37,ENE,74,0.0,0.0,38,0.00,,---,0.00,VWS V14.01,2013-09-06 16:28:00,
2013-09-06 10:33:00,54.0,29.0,30.37,ENE,63,0.0,0.0,38,0.00,,---,0.00,VWS V14.01,2013-09-06 16:33:00,
2013-09-06 10:38:00,54.5,29.4,30.37,ENE,69,0.0,0.0,38,0.00,,---,0.00,VWS V14.01,2013-09-06 16:38:00,
2013-09-06 10:43:00,55.2,30.7,30.37,ENE,75,0.0,0.0,39,0.00,,---,0.00,VWS V14.01,2013-09-06 16:43:00,
2013-09-06 10:48:00,56.1,30.9,30.37,ENE,75,0.0,0.0,38,0.00,,---,0.00,VWS V14.01,2013-09-06 16:48:00,
2013-09-06 10:53:00,57.0,31.0,30.37,North,6,0.0,0.0,37,0.00,,---,0.00,VWS V14.01,2013-09-06 16:53:00,
2013-09-06 10:58:00,57.7,31.0,30.37,NNW,346,0.0,0.0,36,0.00,,---,0.00,VWS V14.01,2013-09-06 16:58:00,
2013-09-06 11:03:00,58.5,30.9,30.37,NW,316,0.0,3.1,35,0.00,,---,0.00,VWS V14.01,2013-09-06 17:03:00,
2013-09-06 11:08:00,59.4,31.0,30.37,NW,321,0.0,0.0,34,0.00,,---,0.00,VWS V14.01,2013-09-06 17:08:00,
2013-09-06 11:14:00,60.4,30.5,30.37,North,353,0.0,3.6,32,0.00,,---,0.00,VWS V14.01,2013-09-06 17:14:00,
2013-09-06 11:19:00,61.3,28.8,30.37,NNW,344,0.0,5.4,29,0.00,,---,0.00,VWS V14.01,2013-09-06 17:19:00,
2013-09-06 11:24:00,62.2,27.9,30.37,NNE,12,3.6,4.9,27,0.00,,---,0.00,VWS V14.01,2013-09-06 17:24:00,
2013-09-06 11:29:00,63.3,27.9,30.37,NNE,22,3.6,4.5,26,0.00,,---,0.00,VWS V14.01,2013-09-06 17:29:00,
2013-09-06 11:34:00,64.2,28.6,30.37,West,275,0.0,2.7,26,0.00,,---,0.00,VWS V14.01,2013-09-06 17:34:00,
2013-09-06 11:40:00,64.9,28.3,30.37,NE,42,2.7,5.8,25,0.00,,---,0.00,VWS V14.01,2013-09-06 17:40:00,
2013-09-06 11:45:00,65.5,27.8,30.37,North,357,2.2,3.1,24,0.00,,---,0.00,VWS V14.01,2013-09-06 17:45:00,
2013-09-06 11:50:00,66.0,28.2,30.37,NNW,335,3.1,6.3,24,0.00,,---,0.00,VWS V14.01,2013-09-06 17:50:00,
2013-09-06 11:55:00,66.6,28.7,30.37,ENE,70,3.6,4.0,24,0.00,,---,0.00,VWS V14.01,2013-09-06 17:55:00,
2013-09-06 12:00:00,67.1,29.1,30.37,NE,51,0.0,3.1,24,0.00,,---,0.00,VWS V14.01,2013-09-06 18:00:00,
2013-09-06 12:05:00,67.5,28.4,30.37,NNW,337,0.0,4.0,23,0.00,,---,0.00,VWS V14.01,2013-09-06 18:05:00,
2013-09-06 12:10:00,67.8,28.7,30.35,North,0,0.0,0.0,23,0.00,,---,0.00,VWS V14.01,2013-09-06 18:10:00,
2013-09-06 12:15:00,68.2,29.0,30.35,North,353,3.6,3.6,23,0.00,,---,0.00,VWS V14.01,2013-09-06 18:15:00,
2013-09-06 12:20:00,68.4,28.1,30.35,WNW,300,0.0,5.4,22,0.00,,---,0.00,VWS V14.01,2013-09-06 18:20:00,
2013-09-06 12:26:00,68.7,28.4,30.35,ENE,78,2.2,3.6,22,0.00,,---,0.00,VWS V14.01,2013-09-06 18:26:00,
2013-09-06 12:31:00,68.9,28.5,30.35,WNW,298,0.0,0.0,22,0.00,,---,0.00,VWS V14.01,2013-09-06 18:31:00,
2013-09-06 12:37:00,69.1,28.7,30.35,NW,315,3.1,4.0,22,0.00,,---,0.00,VWS V14.01,2013-09-06 18:37:00,
2013-09-06 12:42:00,69.1,28.7,30.35,WNW,282,3.6,4.9,22,0.00,,---,0.00,VWS V14.01,2013-09-06 18:42:00,
2013-09-06 12:47:00,69.3,26.5,30.35,NW,325,2.2,4.0,20,0.00,,---,0.00,VWS V14.01,2013-09-06 18:47:00,
2013-09-06 12:52:00,69.4,29.0,30.35,North,350,0.0,0.0,22,0.00,,---,0.00,VWS V14.01,2013-09-06 18:52:00,
2013-09-06 21:30:00,62.6,29.1,30.35,NE,51,0.0,0.0,28,0.00,,---,0.00,VWS V14.01,2013-09-07 03:30:00,
2013-09-06 21:36:00,62.6,29.1,30.35,NE,51,0.0,0.0,28,0.00,,---,0.00,VWS V14.01,2013-09-07 03:36:00,
2013-09-06 21:41:00,62.6,29.9,30.35,NE,52,0.0,0.0,29,0.00,,---,0.00,VWS V14.01,2013-09-07 03:41:00,
2013-09-06 21:47:00,62.2,29.6,30.35,East,83,0.0,0.0,29,0.00,,---,0.00,VWS V14.01,2013-09-07 03:47:00,
2013-09-06 21:53:00,61.9,29.3,30.35,East,83,0.0,0.0,29,0.00,,---,0.00,VWS V14.01,2013-09-07 03:53:00,
2013-09-06 21:58:00,61.9,29.3,30.35,NW,325,0.0,0.0,29,0.00,,---,0.00,VWS V14.01,2013-09-07 03:58:00,
2013-09-06 22:01:00,61.7,29.1,30.35,NW,325,0.0,0.0,29,0.00,,---,0.00,VWS V14.01,2013-09-07 04:01:00,
2013-09-06 22:02:00,61.7,29.1,30.35,NW,325,0.0,0.0,29,0.00,,---,0.00,VWS V14.01,2013-09-07 04:02:00,
2013-09-06 22:05:00,61.7,29.1,30.35,NW,325,0.0,0.0,29,0.00,,---,0.00,VWS V14.01,2013-09-07 04:05:00,
2013-09-06 22:07:00,61.5,29.0,30.35,NW,325,0.0,0.0,29,0.00,,---,0.00,VWS V14.01,2013-09-07 04:07:00,
2013-09-06 22:09:00,61.5,29.0,30.35,WNW,303,0.0,0.0,29,0.00,,---,0.00,VWS V14.01,2013-09-07 04:09:00,
2013-09-06 22:14:00,61.2,28.7,30.35,WNW,303,0.0,0.0,29,0.00,,---,0.00,VWS V14.01,2013-09-07 04:14:00,
2013-09-06 22:19:00,61.2,28.7,30.35,WSW,257,0.0,0.0,29,0.00,,---,0.00,VWS V14.01,2013-09-07 04:19:00,
2013-09-06 22:24:00,61.0,28.5,30.35,SSW,212,0.0,0.0,29,0.00,,---,0.00,VWS V14.01,2013-09-07 04:24:00,
2013-09-06 22:29:00,60.8,28.4,30.35,SSW,198,0.0,0.0,29,0.00,,---,0.00,VWS V14.01,2013-09-07 04:29:00,
2013-09-06 22:34:00,60.4,28.9,30.35,South,179,0.0,3.6,30,0.00,,---,0.00,VWS V14.01,2013-09-07 04:34:00,
2013-09-06 22:39:00,60.3,28.7,30.35,South,181,0.0,0.0,30,0.00,,---,0.00,VWS V14.01,2013-09-07 04:39:00,
2013-09-06 22:44:00,60.3,28.7,30.35,South,179,0.0,0.0,30,0.00,,---,0.00,VWS V14.01,2013-09-07 04:44:00,
2013-09-06 22:50:00,60.1,29.4,30.35,South,179,0.0,0.0,31,0.00,,---,0.00,VWS V14.01,2013-09-07 04:50:00,
2013-09-06 22:56:00,59.7,29.1,30.35,SE,125,0.0,0.0,31,0.00,,---,0.00,VWS V14.01,2013-09-07 04:56:00,
2013-09-06 23:01:00,59.4,28.7,30.35,SE,125,0.0,0.0,31,0.00,,---,0.00,VWS V14.01,2013-09-07 05:01:00,
2013-09-06 23:06:00,59.0,28.4,30.35,SE,125,0.0,0.0,31,0.00,,---,0.00,VWS V14.01,2013-09-07 05:06:00,
2013-09-06 23:11:00,59.0,29.2,30.35,SE,125,0.0,0.0,32,0.00,,---,0.00,VWS V14.01,2013-09-07 05:11:00,
2013-09-06 23:16:00,58.6,29.6,30.35,South,173,0.0,0.0,33,0.00,,---,0.00,VWS V14.01,2013-09-07 05:16:00,
2013-09-06 23:21:00,58.5,29.5,30.35,South,172,0.0,0.0,33,0.00,,---,0.00,VWS V14.01,2013-09-07 05:21:00,
2013-09-06 23:26:00,58.3,29.3,30.35,SSE,168,0.0,0.0,33,0.00,,---,0.00,VWS V14.01,2013-09-07 05:26:00,
2013-09-06 23:32:00,58.1,29.2,30.35,SW,214,3.6,5.8,33,0.00,,---,0.00,VWS V14.01,2013-09-07 05:32:00,
2013-09-06 23:37:00,57.6,29.4,30.35,SSW,207,5.8,5.8,34,0.00,,---,0.00,VWS V14.01,2013-09-07 05:37:00,
2013-09-06 23:42:00,57.2,29.8,30.35,SW,227,3.1,4.9,35,0.00,,---,0.00,VWS V14.01,2013-09-07 05:42:00,
2013-09-06 23:48:00,57.0,30.4,30.35,SSW,205,6.3,7.6,36,0.00,,---,0.00,VWS V14.01,2013-09-07 05:48:00,
2013-09-06 23:53:00,56.7,30.0,30.35,SW,216,3.1,7.2,36,0.00,,---,0.00,VWS V14.01,2013-09-07 05:53:00,
2013-09-06 23:59:00,56.3,29.7,30.35,South,188,5.4,5.8,36,0.00,,---,0.00,VWS V14.01,2013-09-07 05:59:00,